Location: Beeston
(52.7000°N, 0.8167°E)
Time: 11:00:15
(UTC+00:00)

Cosmos 1763 Rocket - Pass Details

Date: 15 May 2026
Orbit: 728 x 773 km, 74.0° (Epoch: 6 June)

Event Time Altitude Azimuth Distance (km) Brightness Sun altitude
Exits shadow 22:50:42 - 223° (SW) 2,559 5.9 -17.0°
Reaches altitude 10° 22:51:20 10° 225° (SW) 2,318 5.7 -17.0°
Maximum altitude 22:56:29 52° 302° (WNW) 954 4.2 -17.2°
Drops below altitude 10° 23:01:39 10° 19° (NNE) 2,318 6.9 -17.4°
Sets 23:04:05 0° 25° (NNE) 3,243 7.6 -17.5°
